Starlink 35965

operational
NORAD ID: 66631 Int'l Des: 2025-271 Owner: SPXS Country: US Constellation: starlink
LEOCIRCULAR

About Starlink 35965

Description loading...

Live Position

Loading 3D Globe...

Upcoming Passes

Altitude History

Altitude vs Time

uPlot chart will show altitude changes over time

Two-Line Element Set

1 66631U 25271Q 26041.01899762 .00019588 00000-0 67150-3 0 9997
2 66631 53.1590 268.2134 0000570 93.8776 266.2289 15.30210273 13334
Epoch: Feb 10, 2026 • Age: 14 hours

Current Status

Altitude 475.2 km
Velocity 7.63 km/s
Sub-Earth Point 10.50°N, 86.59°W
Launch Date Nov 23, 2025
Age 0.2 years
Type internet

Technical Details

Classification Payload
Mass 575.00 kg
Dry Mass 530.00 kg
Total Mass 575.00 kg
Length 0.30 m
Diameter 4.10 m
Span 29.00 m
Shape Box + pan
Manufacturer SPXS
Bus Type Starlink V2MO
Phase Status In Orbit
Owner/State SPXS/US

Large Constellations

Loading constellations...